Location: Bourg-d�Oueil
(42.8588°N, 0.4991°E)
Time: 15:10:26
(UTC+00:00)

SL-24 DEB - Pass Details

Date: 16 June 2021
Orbit: 663 x 701 km, 92.0° (Epoch: 01 August)

Event Time Altitude Azimuth Distance (km) Brightness Sun altitude
Rises 20:12:53 0° 175° (S) 3,041 7.2 -5.8°
Reaches altitude 10° 20:15:07 10° 176° (S) 2,135 6.4 -6.1°
Maximum altitude 20:19:50 84° 264° (W) 705 4.4 -6.8°
Drops below altitude 10° 20:24:38 10° 354° (N) 2,170 7.6 -7.5°
Sets 20:26:56 0° 355° (N) 3,095 8.4 -7.8°
